GFSSE_2pvu_pres_108.txt.gz
Presure
112 115 115 111 100 115 116 112 114 112 111 126 127 110 122 115 123 136 137 94 128 139 132 123 90 123 147 130 107 108 117 113 125 99 102 110 101 117 116 96 124 118 106
101 116 117 116 121 118 119 119 123 127 132 133 129 136 140 144 142 148 221 187 129 129 82 255 230 130 132 242 128 149 136 147 103 108 145 134 106 145 150 94 132 147 110
132 129 126 115 117 119 125 131 126 119 123 136 130 125 245 237 230 161 233 174 240 247 102 146 145 134 228 136 209 132 125 174 167 148 238 195 169 153 153 157 123 107 136
123 112 120 128 125 124 120 130 129 137 140 125 187 231 230 213 221 234 203 233 170 124 123 187 203 222 202 256 130 214 203 224 236 138 220 220 243 99 216 236 180 171 172
126 131 123 134 138 128 134 132 173 217 126 145 188 204 232 232 222 212 224 179 180 75 229 219 209 206 228 219 226 187 169 195 193 223 243 253 245 230 238 157 232 227 221
131 133 141 135 135 135 147 236 209 144 215 218 136 166 243 219 232 248 246 234 223 90 231 228 209 236 129 216 222 228 228 227 249 151 212 204 150 151 79 219 228 152 233
133 226 223 118 192 226 228 223 207 205 213 219 208 223 218 290 259 239 246 235 232 216 234 236 213 205 221 197 215 209 211 229 243 207 95 226 122 212 154 156 150 231 229
223 152 217 225 217 222 220 210 183 169 214 188 205 151 211 183 232 231 202 206 210 222 214 228 218 221 195 218 204 207 185 207 190 211 171 234 168 147 160 217 184 227 182
224 223 217 222 227 223 207 203 214 171 150 209 147 220 207 220 277 263 105 220 205 199 205 208 229 213 200 204 198 196 208 207 228 191 160 200 192 188 216 225 230 220 233
213 215 74 206 216 209 192 164 154 201 201 146 215 212 94 217 243 257 227 237 215 234 209 218 194 189 212 191 216 207 214 197 199 195 192 189 221 162 228 197 218 225 216
162 214 190 205 209 169 203 212 188 183 203 217 177 210 121 217 246 263 244 234 220 228 223 196 196 193 196 189 201 199 193 195 207 207 210 149 192 211 217 145 223 224 217
185 214 203 204 168 201 202 156 194 195 206 202 205 109 202 213 242 254 224 229 220 208 216 222 213 228 206 194 195 186 203 210 204 198 215 219 209 209 190 237 227 215 206
203 205 202 150 175 204 196 170 209 202 210 191 192 149 121 216 197 259 208 207 208 211 220 208 225 214 242 216 209 199 205 208 204 207 208 205 204 197 233 198 199 156 182
134 143 139 187 204 183 195 197 159 192 196 211 227 204 204 212 200 264 232 204 194 192 197 194 202 233 216 217 215 211 208 206 195 209 204 199 196 161 201 189 185 198 214
171 197 194 193 202 196 200 198 201 174 205 162 194 219 211 211 199 266 245 216 219 202 204 193 219 163 214 212 209 212 206 195 206 191 197 196 194 182 187 198 192 189 174
194 198 196 191 195 203 195 196 203 189 184 174 207 198 231 208 207 267 223 225 214 209 193 214 243 240 227 206 205 204 205 198 203 191 198 195 186 183 174 177 176 173 174
192 193 197 184 199 195 191 195 124 205 87 215 208 196 215 225 197 258 238 225 213 197 193 220 238 249 238 205 199 203 206 190 188 193 188 178 181 182 192 170 175 178 173
193 191 205 193 185 190 190 199 196 198 197 213 210 216 217 208 248 250 241 231 221 195 230 249 242 259 227 219 209 203 196 211 190 186 187 174 173 173 173 174 166 180 175
191 196 194 185 174 188 183 184 191 175 193 193 195 213 217 195 247 245 233 226 212 200 223 221 234 253 242 204 194 196 194 201 183 178 191 181 173 167 179 170 165 172 165
186 185 183 171 184 189 149 197 177 208 200 188 213 211 216 222 243 240 232 225 216 183 236 244 269 205 202 208 194 203 201 194 184 188 185 173 169 174 172 173 170 163 169
187 189 172 198 182 152 172 184 192 186 200 180 193 206 208 203 240 236 230 223 202 193 226 345 221 230 233 215 208 200 198 198 184 182 186 179 170 183 172 179 181 172 182
187 190 186 172 176 180 184 173 184 181 195 193 203 212 203 225 239 229 226 221 204 196 241 221 243 211 241 223 207 207 203 195 188 182 178 173 178 184 184 179 166 177 179
170 174 188 179 176 187 184 172 194 178 199 198 197 216 219 229 225 222 224 217 200 202 231 269 243 210 219 200 210 213 211 192 191 176 179 181 186 180 179 183 177 170 179
189 184 191 182 178 177 182 155 188 175 190 162 202 208 213 233 232 222 219 216 201 233 243 244 225 239 211 233 214 207 204 185 178 177 179 174 179 189 179 192 164 178 157
184 189 181 178 162 180 182 189 190 201 199 198 203 215 216 232 235 234 221 213 204 229 248 238 219 210 228 216 226 206 193 187 192 185 182 183 177 187 187 169 170 189 182
174 181 195 192 194 194 146 193 148 200 193 202 203 211 229 207 228 251 220 215 203 202 216 226 214 210 226 204 218 212 196 202 183 184 185 182 182 184 196 200 201 187 186

GFSSE_2pvu_pres_111.txt.gz
Presure
122 120 107 113 102 117 111 107 108 103 110 108 122 119 125 106 121 130 132 112 78 137 136 136 89 139 105 137 134 141 97 127 129 137 133 134 137 147 104 132 133 147 103
116 100 120 125 117 103 114 119 133 125 123 124 127 135 134 121 133 139 122 133 237 247 222 248 166 264 231 216 265 86 197 222 236 125 170 134 141 127 139 137 142 138 143
117 116 119 116 112 123 126 122 112 126 129 128 126 126 135 138 136 118 155 236 246 241 195 195 241 165 187 163 241 147 164 231 240 206 137 126 126 159 180 164 162 154 146
122 111 122 117 133 123 130 114 130 120 124 128 132 137 130 145 224 159 248 245 262 241 249 242 247 239 216 215 127 168 240 261 270 235 212 165 228 214 211 172 174 184 105
126 126 128 131 132 127 123 133 117 139 126 141 135 211 221 219 204 209 193 154 216 258 230 246 228 240 220 164 225 218 211 222 235 252 245 201 216 137 230 169 168 234 243
127 121 131 117 138 139 125 132 139 150 170 215 213 223 227 216 237 168 192 199 264 158 248 226 239 216 217 223 220 212 214 216 196 224 239 236 226 226 227 118 203 224 144
117 120 113 129 127 156 240 232 230 155 209 209 219 195 224 168 226 162 192 176 264 217 227 195 228 241 207 214 204 215 216 204 208 204 199 239 228 153 225 228 173 212 214
141 154 160 164 228 196 84 223 229 229 208 204 219 218 196 188 180 215 161 267 273 257 160 234 188 233 226 228 203 214 206 208 202 207 198 201 184 198 219 228 223 212 222
159 157 220 223 214 163 86 231 225 212 199 167 205 170 208 175 222 145 234 85 267 260 247 191 215 201 201 223 206 220 216 205 213 194 186 205 193 196 186 197 188 199 205
205 219 214 151 222 160 155 225 191 208 195 192 202 196 151 200 215 211 187 214 275 251 245 230 225 207 200 199 196 213 191 203 193 197 196 196 191 190 196 190 198 215 220
201 172 150 218 143 201 205 151 152 198 197 203 210 196 170 209 210 206 226 104 204 232 239 233 213 235 199 200 194 195 191 195 188 209 201 177 194 188 194 213 212 203 216
153 143 136 143 137 197 200 211 213 213 196 143 188 178 194 168 89 151 201 170 194 235 223 231 217 218 222 209 197 203 203 198 201 189 181 204 185 195 213 207 208 221 201
135 145 223 224 213 198 197 203 165 137 166 191 198 202 204 209 198 209 194 162 198 237 210 209 214 215 208 217 211 194 204 215 201 202 142 202 194 208 203 205 237 227 194
147 222 226 211 219 199 188 131 121 209 201 198 198 195 206 190 204 195 213 241 221 246 229 204 196 190 205 210 201 208 233 224 217 212 209 203 214 204 199 191 213 184 201
176 208 217 211 214 190 193 194 200 201 212 192 186 200 210 196 208 196 215 250 190 206 226 221 216 206 204 185 188 197 227 219 215 204 212 196 196 194 191 194 192 184 202
230 218 215 219 201 195 192 197 197 205 188 201 207 211 167 195 206 192 143 249 229 234 220 219 221 203 200 185 223 231 226 213 209 207 202 202 193 195 187 187 185 182 173
191 228 209 222 174 195 192 184 198 195 209 195 197 186 150 198 184 217 208 229 250 262 241 227 207 198 195 214 250 233 225 212 196 211 194 204 197 193 192 189 191 183 172
223 225 208 220 201 198 190 196 192 186 198 194 180 182 194 190 195 200 205 222 222 261 237 217 209 206 203 242 236 237 230 213 208 204 191 192 192 186 181 180 175 173 172
222 215 209 211 211 198 190 185 186 193 182 171 196 173 174 188 199 211 199 235 248 251 238 214 194 213 224 242 252 236 218 215 213 192 189 192 188 173 186 175 170 173 174
195 214 154 213 215 190 192 186 188 191 179 136 172 192 177 191 202 211 206 228 251 244 243 219 193 189 226 239 251 229 232 205 213 189 196 196 181 180 177 171 180 166 167
168 201 226 194 209 190 189 203 198 175 178 188 202 174 182 204 197 210 204 214 251 239 247 211 195 220 236 265 216 233 217 221 212 199 185 185 177 174 181 171 170 168 169
186 201 199 204 189 192 183 192 184 174 179 179 186 175 192 198 195 201 208 218 241 235 244 204 186 217 226 230 214 203 225 214 203 201 186 184 186 175 173 169 165 172 177
194 201 195 203 200 191 188 189 191 183 177 165 179 182 187 185 177 199 212 220 244 234 240 207 201 232 319 243 234 223 218 217 189 196 199 187 189 174 173 178 172 174 183
191 172 193 205 197 197 200 198 200 190 181 187 180 181 186 190 199 201 214 225 250 235 240 203 206 222 321 237 243 205 228 212 194 201 196 201 187 173 176 187 177 187 178
186 191 190 188 196 199 183 181 183 181 185 183 187 198 152 194 207 205 212 234 250 237 236 202 206 226 240 237 212 235 225 213 210 207 199 195 194 174 183 185 178 176 189
181 180 189 194 192 166 179 149 192 184 196 190 190 174 202 207 212 225 224 236 246 256 233 203 202 225 243 223 240 223 207 210 205 204 203 196 185 182 183 181 182 168 189

GFSSE_2pvu_pres_114.txt.gz
Presure
96 110 96 110 117 118 115 115 114 114 121 113 112 105 130 131 125 118 126 130 126 132 133 141 109 108 113 235 107 96 190 227 81 91 141 125 131 132 129 124 137 119 128
119 119 121 123 117 112 94 117 125 122 107 121 131 131 123 111 136 129 122 126 135 135 139 125 130 101 90 177 210 227 236 159 233 188 244 207 212 208 126 178 124 124 144
116 112 123 122 119 121 104 117 121 108 122 116 121 130 123 128 127 127 139 182 92 144 175 235 257 221 251 241 235 219 164 237 267 204 161 159 218 142 209 214 203 150 89
117 114 119 125 123 113 105 121 125 131 130 130 119 137 144 120 140 125 210 237 231 235 198 271 238 157 197 197 243 236 222 230 235 245 185 241 237 244 186 212 212 165 155
121 119 119 114 122 126 130 132 114 129 122 135 140 121 142 136 227 224 229 240 235 247 177 281 190 243 227 176 227 225 238 215 180 226 199 200 213 242 263 211 213 216 214
127 126 118 131 123 131 127 118 129 131 137 127 145 225 162 217 216 228 225 226 231 246 216 162 178 237 231 184 225 236 216 220 218 229 214 206 250 226 210 232 214 214 235
134 138 115 124 122 139 131 127 137 147 159 239 225 160 213 209 203 214 217 228 229 92 233 251 234 260 227 241 225 241 220 250 213 228 191 198 206 217 190 190 230 229 221
133 135 134 135 137 127 119 139 151 123 197 203 157 211 209 204 219 185 213 200 191 154 234 269 263 242 238 224 158 165 237 203 214 233 207 215 188 192 199 192 202 202 196
143 146 143 141 143 152 166 203 227 212 216 153 222 206 210 140 147 196 203 227 205 206 240 216 269 144 206 222 209 214 211 207 221 219 195 203 195 187 183 176 191 187 190
168 170 170 165 193 217 227 222 206 215 223 225 144 213 209 211 212 207 148 139 208 156 228 213 236 248 243 225 207 208 204 200 205 210 201 194 200 189 195 189 185 191 193
221 214 207 217 216 82 187 226 131 127 134 162 156 206 196 195 191 149 173 147 173 218 204 97 147 230 224 228 216 211 204 205 204 202 191 193 185 196 193 181 195 189 189
211 211 142 167 149 155 177 194 166 173 216 210 199 202 205 190 156 207 192 211 226 218 144 91 165 234 231 219 215 214 206 200 203 205 201 187 200 178 182 174 191 195 209
189 221 214 213 198 214 210 136 223 212 203 199 196 202 137 193 209 200 199 214 191 189 216 250 203 245 205 212 210 203 207 207 201 201 198 198 198 189 182 184 194 189 188
170 200 225 219 218 221 148 146 214 210 204 191 197 192 201 186 206 191 175 196 199 226 232 266 226 215 224 196 202 198 206 212 218 202 194 199 213 198 195 188 193 198 202
210 211 197 185 225 228 220 205 178 199 198 201 199 203 190 202 195 192 193 179 207 195 205 251 251 222 230 211 195 200 203 198 184 192 188 219 223 213 200 204 199 187 190
208 209 206 237 237 235 217 215 214 203 194 201 200 209 186 195 190 190 152 187 181 194 212 213 251 260 222 207 216 210 202 189 188 193 228 215 221 214 194 194 183 183 196
205 207 190 221 142 220 229 211 218 195 193 190 197 201 184 185 191 191 185 204 177 184 216 241 250 257 244 230 209 209 200 191 212 231 224 212 217 206 191 203 182 201 192
171 193 210 204 198 219 226 211 215 192 199 193 201 202 182 164 201 144 191 197 191 198 199 217 253 250 239 220 203 196 198 279 234 229 216 208 218 192 195 187 186 181 191
203 194 208 185 181 222 227 206 216 196 195 189 193 193 185 191 179 181 187 181 197 184 196 215 252 248 234 219 200 194 213 229 229 230 219 208 216 193 196 183 194 178 175
194 142 193 199 198 223 219 216 220 199 193 193 188 190 183 180 170 161 162 183 187 194 196 214 250 250 237 208 191 222 251 233 238 235 219 207 196 208 185 181 176 181 177
193 195 198 200 188 161 207 197 187 223 200 194 187 176 191 171 183 180 183 188 192 192 187 204 253 242 238 210 193 193 250 243 237 233 222 215 210 189 189 183 182 182 162
210 199 195 188 201 201 198 213 188 210 206 193 197 188 182 184 163 183 182 145 185 197 213 211 255 240 184 205 193 227 250 244 230 231 223 216 186 193 189 172 182 168 171
204 195 197 195 187 185 189 201 200 180 185 176 175 189 191 192 183 179 182 181 186 198 217 235 256 242 229 205 191 242 254 235 221 202 215 210 183 181 188 177 181 170 173
197 196 191 197 184 178 205 193 184 192 189 188 158 180 182 181 184 188 181 157 204 203 215 228 256 242 235 206 221 358 233 233 222 204 205 200 201 188 182 184 190 181 170
201 202 184 195 191 197 203 191 208 213 210 200 199 183 193 189 181 177 194 171 198 203 210 215 253 252 230 205 221 287 214 221 216 221 206 204 187 185 174 181 189 180 170
197 200 187 183 193 187 173 182 180 187 189 205 195 193 194 189 187 189 196 182 196 213 203 227 251 248 224 208 221 259 241 222 212 203 211 211 195 202 203 204 190 179 188

GFSSE_2pvu_pres_117.txt.gz
Presure
107 108 97 85 95 111 91 103 110 118 113 105 109 115 118 112 115 114 114 133 127 122 124 128 126 122 136 136 135 108 114 125 90 241 242 171 225 213 221 184 185 123 135
115 113 112 114 112 116 115 114 118 114 110 96 115 116 115 105 115 129 133 131 115 121 93 132 133 140 270 131 84 199 124 234 240 175 153 180 235 216 156 158 202 117 196
113 114 113 100 116 115 109 117 117 116 120 118 115 115 112 104 133 131 132 120 142 122 138 241 239 228 235 275 249 238 199 240 163 176 252 243 288 170 225 200 119 163 204
107 128 126 113 105 118 109 117 121 111 116 103 111 126 126 124 130 125 135 120 125 233 241 234 216 262 291 271 211 237 203 253 235 210 222 226 271 159 176 237 210 177 207
114 123 112 109 115 119 112 119 119 114 113 114 129 132 115 132 118 148 162 169 220 214 224 240 236 246 252 182 166 120 259 237 133 231 227 222 206 206 201 210 225 206 147
112 126 124 126 123 129 119 125 124 118 126 132 123 138 121 140 153 166 176 233 161 214 220 202 242 154 240 273 250 246 166 170 221 240 248 243 213 222 216 138 209 188 235
129 112 133 128 133 140 138 126 132 124 129 130 139 132 102 124 169 228 215 168 224 215 212 150 257 219 185 176 217 151 182 229 232 235 226 127 216 196 188 193 204 214 106
134 135 139 136 138 140 115 128 124 133 133 139 117 149 153 232 215 217 186 226 218 215 209 229 156 238 143 206 266 137 227 206 229 196 224 205 247 178 207 197 185 191 186
146 147 137 148 145 149 143 148 139 142 154 144 158 223 212 217 223 160 158 152 204 212 213 192 141 229 227 223 256 236 220 221 223 220 173 208 197 137 202 197 197 186 189
105 207 213 215 208 213 224 167 187 225 216 235 220 90 218 165 139 141 204 204 210 198 187 236 244 228 250 253 240 228 235 216 212 206 209 196 204 196 193 192 194 194 182
216 220 222 219 212 223 218 218 215 209 218 223 124 200 199 154 197 196 208 215 193 186 196 223 199 241 260 220 249 232 217 224 213 210 203 199 187 195 180 178 186 180 187
118 175 181 149 138 152 152 158 215 210 211 204 168 211 199 157 203 206 194 210 161 195 203 210 158 209 270 187 95 224 225 217 212 213 207 196 191 184 190 183 187 181 187
185 103 219 193 215 215 108 229 213 214 219 81 230 208 83 154 185 183 207 196 205 200 200 218 210 198 178 244 221 236 207 216 212 213 208 202 192 188 189 192 190 183 174
205 210 141 211 216 229 234 226 135 218 215 219 229 148 210 162 190 193 197 201 185 193 210 139 219 208 220 262 244 239 209 194 207 205 196 200 191 188 193 193 198 193 180
202 202 170 188 133 237 224 223 224 193 213 219 227 224 200 204 203 195 190 193 183 197 190 211 212 201 196 265 272 236 186 201 199 191 205 207 196 192 185 192 206 199 187
143 192 186 208 211 207 208 232 204 227 232 216 223 209 202 201 197 203 192 192 189 192 119 176 174 200 204 232 267 251 224 209 203 199 195 194 185 184 188 216 216 202 186
139 202 198 208 205 204 209 202 200 238 232 220 218 218 202 203 202 200 195 180 190 194 140 175 201 200 212 218 253 259 230 221 220 214 205 199 185 187 209 211 212 192 198
92 192 201 206 208 203 207 196 207 221 229 224 202 214 203 188 198 199 187 182 185 198 127 191 193 208 202 211 254 255 238 212 206 213 211 184 207 226 230 209 201 186 193
200 203 202 203 194 203 174 168 197 212 189 222 206 201 203 190 192 201 189 184 171 190 171 185 178 195 197 206 254 258 218 218 206 211 195 225 238 227 217 214 198 188 193
200 196 203 201 192 159 180 199 193 192 191 180 204 208 201 193 160 181 187 186 180 187 185 186 184 185 198 221 255 253 227 215 204 203 229 236 231 228 204 209 192 190 194
217 197 207 184 139 197 192 191 135 76 234 225 204 212 195 176 200 195 181 186 191 180 176 182 183 182 200 222 258 249 234 217 203 188 240 240 226 227 203 189 178 194 180
175 210 197 206 196 196 186 193 193 213 196 216 197 192 145 183 204 192 199 188 182 186 177 184 191 192 205 216 257 248 222 214 212 189 254 251 235 227 212 198 195 183 167
223 212 208 174 156 200 166 188 192 146 197 174 187 181 187 197 197 193 184 183 193 188 180 187 189 195 206 216 256 247 215 210 204 196 246 247 236 217 209 192 174 180 192
227 195 208 193 182 200 201 194 193 205 194 192 191 174 178 191 183 172 185 195 182 176 189 172 192 198 205 208 252 257 221 207 211 283 251 221 250 227 198 198 189 182 180
221 215 199 207 193 203 198 197 200 177 191 159 206 199 184 191 187 184 180 183 198 181 184 191 199 210 204 213 245 258 217 210 209 262 238 218 202 217 207 185 188 182 179
229 212 205 207 206 195 201 198 199 188 203 191 183 191 192 197 195 184 186 186 201 190 185 187 186 211 206 211 252 253 213 205 323 251 234 218 220 199 201 194 191 173 181

GFSSE_2pvu_pres_120.txt.gz
Presure
113 102 98 93 112 113 113 89 107 108 93 102 109 116 119 104 107 113 117 113 113 110 101 128 128 128 117 121 124 107 169 83 235 197 135 227 214 133 187 170 182 203 208
106 108 104 104 93 90 94 100 112 106 109 108 113 117 117 115 108 85 119 116 115 119 132 119 112 121 125 128 119 154 245 242 224 221 195 194 194 177 203 273 240 186 197
95 97 105 118 105 118 116 110 105 115 112 109 107 118 116 120 95 113 117 124 128 127 127 125 138 149 141 242 247 245 281 252 264 193 250 232 221 178 163 165 220 222 214
115 106 112 112 115 114 113 110 106 119 111 117 115 118 121 122 117 111 122 127 135 125 124 136 159 193 250 203 212 218 221 163 68 251 223 158 162 176 234 207 264 243 227
123 124 119 118 108 105 122 124 104 102 106 105 112 119 119 118 116 114 124 127 122 98 146 161 218 248 162 254 250 174 274 267 255 254 154 230 220 205 166 214 210 210 212
132 129 126 112 111 125 122 122 116 118 127 129 122 127 125 122 140 135 125 147 136 146 159 228 160 170 152 225 261 163 280 271 239 216 192 253 212 177 216 213 186 203 214
122 128 129 131 128 124 113 112 119 128 125 125 139 130 127 131 132 140 142 111 157 217 211 232 167 149 161 244 230 224 154 263 144 234 227 241 228 214 206 211 201 205 202
138 126 126 127 124 125 105 117 125 137 123 133 143 130 125 139 142 119 187 189 230 239 226 177 143 224 227 243 228 146 187 252 233 235 240 228 240 213 202 209 193 200 190
156 95 153 151 150 146 147 126 140 148 147 149 149 144 149 154 161 227 215 213 181 200 205 180 202 151 228 245 142 206 242 254 242 229 220 229 217 213 196 188 193 213 200
234 124 91 214 213 183 210 237 198 208 141 160 165 240 219 216 236 226 209 218 211 165 210 195 207 221 222 215 234 270 227 188 244 242 212 209 206 216 193 198 201 196 190
153 142 204 230 87 96 223 99 163 227 214 216 220 224 225 218 185 125 203 205 205 211 165 214 212 209 161 224 240 270 221 237 229 228 226 210 199 192 187 196 201 196 189
140 182 136 139 115 203 163 202 224 226 212 217 153 187 195 229 232 173 207 206 210 203 194 201 194 207 194 217 210 222 259 222 227 222 187 213 206 191 191 193 211 190 192
217 194 198 226 228 120 144 147 219 204 227 154 220 205 219 168 227 221 207 207 203 207 189 207 211 197 205 154 213 220 275 217 227 217 213 213 207 201 194 189 191 197 194
198 179 206 199 195 216 216 81 158 128 143 182 228 230 215 235 229 209 213 204 196 203 201 194 202 193 207 206 210 209 275 257 224 215 208 200 219 202 191 198 190 191 194
215 166 161 205 190 204 203 212 205 208 201 237 223 228 206 218 189 229 210 202 200 204 194 193 210 198 199 202 211 214 220 280 241 209 207 198 205 203 193 200 189 196 181
125 161 204 212 156 145 195 207 210 198 221 212 204 206 203 241 225 226 210 203 202 205 200 197 194 184 184 196 159 204 203 270 269 223 207 200 196 189 200 200 199 194 183
245 207 144 163 88 210 202 209 182 201 196 209 214 223 239 219 196 224 204 200 201 201 191 194 196 192 91 194 136 200 204 258 263 245 212 205 198 193 190 193 194 185 183
236 208 142 91 198 193 209 198 208 200 198 209 210 204 219 231 228 208 210 206 199 194 201 193 188 91 184 203 179 200 204 260 260 244 224 216 213 215 204 189 184 183 198
169 134 141 219 183 179 137 166 208 199 214 202 190 212 200 199 195 217 209 197 206 191 198 192 190 187 181 189 187 199 200 244 255 244 226 219 210 208 205 186 189 202 228
122 126 127 149 171 198 200 201 201 200 204 200 156 196 144 192 157 151 211 201 204 198 158 189 190 197 146 185 201 195 194 220 260 256 221 218 213 204 197 195 237 227 221
139 271 214 139 226 219 197 194 193 203 200 195 172 201 199 198 225 211 203 208 157 191 199 193 190 183 184 195 191 183 198 219 272 257 221 215 203 190 259 228 245 220 199
212 208 226 225 235 154 205 203 173 201 200 196 192 183 195 199 231 204 213 209 201 206 200 187 192 199 199 182 191 183 186 220 269 246 221 215 210 227 221 224 246 217 207
284 222 254 257 235 223 214 208 198 198 202 203 155 196 197 162 215 188 192 170 191 179 182 185 179 181 163 187 173 200 220 221 258 247 220 213 203 188 240 243 248 213 201
360 203 251 248 231 217 218 205 201 192 202 169 186 189 167 184 195 179 174 175 179 186 187 184 184 194 195 187 200 203 207 222 257 257 222 213 206 264 237 235 232 211 192
354 301 248 239 222 212 215 209 202 196 201 197 194 192 194 191 189 201 197 189 183 187 198 191 185 182 186 198 180 198 199 210 248 261 223 219 204 258 263 229 240 203 189
300 256 252 218 225 219 214 194 202 196 190 191 204 194 193 179 170 182 187 195 196 207 206 194 181 196 183 178 192 199 210 204 221 267 207 218 338 256 248 240 229 211 192

GFSSE_2pvu_pres_123.txt.gz
Presure
105 103 111 106 115 109 107 107 101 102 116 113 115 111 109 108 110 111 116 116 109 113 95 117 107 104 110 113 124 119 117 118 151 179 178 213 116 262 247 211 110 209 227
99 114 106 112 115 99 98 97 122 118 87 94 101 104 112 115 117 115 118 101 120 109 120 131 111 116 120 125 129 122 121 169 111 231 236 212 208 207 152 213 213 208 212
114 97 110 96 118 118 111 105 108 103 106 108 112 113 115 117 116 107 113 119 127 121 114 116 123 125 120 137 121 141 169 260 254 234 246 257 245 221 161 171 234 167 168
97 103 97 106 110 110 105 108 111 111 120 117 113 105 118 123 116 116 124 125 126 107 123 119 127 128 114 136 149 179 236 260 153 287 259 152 273 257 255 155 216 153 221
121 122 115 122 113 108 115 122 118 109 113 116 115 99 121 124 116 120 118 105 124 130 133 138 131 129 137 158 229 234 229 242 152 276 253 213 262 202 224 212 188 204 210
129 128 126 121 107 117 119 123 109 119 108 110 123 123 112 107 115 135 133 130 129 126 147 129 144 159 198 230 237 226 284 234 239 279 256 106 146 227 145 218 211 214 209
138 124 124 130 140 127 131 130 131 125 111 130 121 122 115 124 128 128 129 133 141 90 128 156 162 190 200 229 236 136 292 200 261 77 186 161 254 226 206 199 186 193 197
148 148 144 149 144 133 130 132 133 139 138 119 112 120 128 124 128 127 130 147 149 140 162 218 225 223 226 165 183 162 223 262 253 267 242 223 206 225 210 179 187 195 196
218 128 104 132 163 159 159 158 155 154 146 151 152 149 147 148 141 149 154 206 202 210 228 208 216 223 150 170 216 226 221 265 154 241 244 219 225 221 187 184 189 192 203
146 225 228 121 252 107 151 233 240 227 235 208 176 238 229 229 226 232 217 226 230 207 224 160 216 137 209 193 144 206 235 224 257 233 254 223 223 214 194 188 183 182 200
191 211 227 228 225 159 223 219 239 132 144 232 237 230 226 208 167 227 237 229 226 216 146 192 213 211 202 202 153 212 153 183 266 242 225 228 208 192 209 201 200 194 186
151 190 212 166 162 156 153 147 143 154 138 148 170 158 230 226 221 224 184 150 151 221 213 197 210 212 209 201 207 209 212 217 278 247 233 225 219 206 194 193 198 202 193
212 134 121 122 209 219 204 127 127 88 240 237 234 208 137 191 153 244 220 229 212 216 198 214 202 195 204 99 208 206 196 206 186 257 228 219 220 213 198 192 184 190 190
205 211 195 203 203 212 224 212 208 226 185 86 216 223 212 214 129 97 234 224 138 194 211 211 201 191 205 199 193 202 202 192 192 278 240 227 215 206 195 201 192 192 194
229 228 230 83 207 211 202 219 216 213 108 222 209 208 209 210 221 219 218 200 221 220 209 207 196 203 202 198 205 195 198 187 195 224 249 229 215 208 194 197 202 194 200
218 219 227 260 84 190 202 211 186 204 210 211 196 164 202 197 220 219 205 195 226 221 205 205 206 195 199 191 194 199 205 208 210 208 277 236 225 207 202 196 187 193 199
211 154 136 134 198 223 207 203 85 144 196 182 214 163 194 207 209 219 204 231 233 219 200 208 204 198 186 200 200 189 196 183 177 196 267 267 227 214 204 188 188 190 197
211 116 161 182 226 219 204 150 209 147 183 185 205 214 197 204 208 214 205 226 225 214 201 208 203 206 184 193 199 178 201 203 206 205 215 267 245 223 204 204 193 193 193
232 174 235 148 215 224 206 128 119 204 207 142 174 204 213 202 209 207 219 189 188 136 203 204 167 201 196 194 127 186 180 190 201 210 216 263 247 233 223 207 197 195 195
209 211 227 239 222 197 180 158 138 166 214 206 205 168 209 211 207 208 206 176 195 191 211 209 194 201 187 196 185 192 197 207 194 210 209 213 257 236 224 223 212 213 201
104 155 230 156 227 120 127 243 172 207 223 218 171 188 201 193 208 195 144 195 200 224 206 198 203 192 190 195 196 191 176 198 190 208 212 216 265 238 224 220 207 196 194
238 239 244 250 189 250 127 167 130 130 208 204 210 205 196 146 204 195 194 192 190 219 212 203 201 199 209 207 199 193 186 194 207 214 206 215 293 258 227 219 186 188 253
84 241 241 102 173 190 158 227 213 137 220 205 202 195 168 180 199 204 134 150 184 200 181 185 183 171 179 183 178 187 201 198 195 199 211 207 224 263 234 218 204 204 237
80 77 203 251 180 218 200 197 226 231 216 196 213 200 195 194 206 210 202 148 178 198 185 177 175 182 182 184 188 188 189 176 185 194 203 218 216 267 237 215 197 221 234
253 267 256 245 221 214 194 232 238 275 192 215 216 199 201 188 195 196 190 191 192 183 203 182 183 211 184 197 201 202 199 195 187 190 197 200 220 270 236 218 200 220 236
257 260 206 249 242 225 209 240 263 232 245 222 216 207 201 199 198 177 191 183 191 192 188 193 198 193 203 212 168 199 194 187 200 183 185 209 230 278 240 219 202 240 225